CZ-6A DEB, 54433

Orbit data source: Space-Track

CZ-6A DEB, 54433 is space debris in SSO originally from a launch on Fri, 11 Nov 2022 UTC launched from the Taiyaun Space Center, China (TSC). Debris objects in space refer to the collection of defunct objects orbiting the Earth. Examples of debris include non-operational satellites, rocket bodies, and fragments generated from explosions, collisions, or faulty payload assembly.

Loading next visibility...
Identifier
54433, 2022-151FH
Orbit
SSO
Country
Flag of CNCN / PRC
Related business
Manufacturer
SAST
Mission
Spacecraft
Bus & Motor
Unknown
Mass
Unknown
Launch date (UTC)
2022-11-11 (4 years ago)
Launch vehicle
Unknown
Launch site
Taiyaun Space Center, China (TSC)
Object type
Payload
Rocket body
Debris
Shape & HBR
Unknown shape, 0.1 m
Radar Cross Section
Medium (>0.1 m² and <1 m²)

Expand to show TLE details & history
Last TLE update: 13 hours ago

TLE from 13 hours ago
0 CZ-6A DEB
1 54433U 22151FH  26235.83313724  .00000215  00000-0  25061-3 0  9994
2 54433  99.2530 186.8868 0261120  89.5581 273.5476 13.64647174188028
Epoch: 2026-08-23T19:59Z
TLE epoch observation values (Epoch: 2026-08-23T19:59:43.057Z)
Latitude
-0.00006°
Longitude
-85.16612°
Altitude
1,014.756 km
Speed
7.348 km/s
True Right ascension
12h 27m 32s
True Declination
0° 00' 00"
Sunlit
Object was in daylight at epoch
Visualization orbit readout
Latitude
Unknown
Longitude
Unknown
Altitude
Unknown
Speed
Unknown
Apparent Right ascension
Unknown
Apparent Declination
Unknown
Sunlit
N/A
Visualization observer readout
Local Sidereal Time
00:25:02
Azimuth
Unknown
Elevation
Unknown
Doppler factor
Unknown
Orbital elements
Apogee altitude
1,209.186 km
Perigee altitude
823.029 km
Semi-major axis
7,394.245 km
Eccentricity
0.02611
Inclination
99.253°
RAAN
186.8868°
Arg. of periapsis
89.5581°
True anomaly
270.55644°
Mean anomaly
273.5476°
Eccentric anomaly
272.05245°
Mean motion
3.41352 °/min
Orbital period
105.46 mins
BSTAR
0.00025061
Loading maneuver chart data...
Computing Atmospheric mass density...
Loading historical data...
Loading historical data...
Loading historical data...
Loading historical data...
Loading historical data...
Loading historical data...
Loading historical data...

Documentation

Showing up to 5 results
|